Starlink 6130

operational
NORAD ID: 57104 Int'l Des: 2023-090 Owner: SPXS Country: US Constellation: starlink
LEOCIRCULAR

Starlink 6130について

説明を読み込み中...

リアルタイム位置

3D地球を読み込み中...

次回通過

高度履歴

Altitude vs Time

uPlot chart will show altitude changes over time

軌道要素

1 57104U 23090D 25302.88920817 .00000791 00000-0 73610-4 0 9994
2 57104 43.0077 265.7276 0001119 265.1775 94.8939 15.02533375130730
Epoch: Oct 29, 2025 • Age: 29 hours

現在のステータス

高度 558.5 km
速度 7.58 km/s
衛星直下点 4.26°N, 7.6°W
打ち上げ日 Jun 23, 2023
運用期間 2.3 years
タイプ internet

技術仕様

分類 Payload
質量 305.00 kg
乾燥質量 290.00 kg
総質量 305.00 kg
長さ 0.20 m
直径 2.80 m
スパン 9.00 m
形状 Box + pan
製造者 SPXS
バスタイプ Starlink
フェーズステータス In Orbit
所有者/国 SPXS/US

大規模コンステレーション

Loading constellations...